Regional Weather Roundup
Issued by NWS

Home | Current Version | Previous Version | Text Only | Print | Product List | Glossary On
Versions: 1 2 3 4 5 6 7 8 9 10 11 12 13 14 15 16 17 18 19 20 21 22 23 24 25 26 27
000
ASUS45 KBOU 251107
RWRCO

WEATHER ROUNDUP FOR COLORADO
NATIONAL WEATHER SERVICE DENVER/BOULDER CO
500 AM MDT WED MAY 25 2016

NOTE: "FAIR" INDICATES FEW OR NO CLOUDS BELOW 12000 FEET WITH NO
SIGNIFICANT WEATHER AND/OR OBSTRUCTIONS TO VISIBILITY.

COZ001>005-013-030-031-251200-
...NORTHWEST COLORADO...

CITY           SKY/WX    TMP DP  RH WIND       PRES   REMARKS
CRAIG          MOCLDY    44  35  70 CALM      30.05S
HAYDEN         MOCLDY    41  34  75 SE9       30.06F
MEEKER         MOCLDY    44  34  67 NE3       30.06R
MOUNT WERNER   NOT AVBL
STEAMBOAT SPGS FAIR      40  32  71 E5        30.08S
WALDEN         MOCLDY    34  28  80 S5        30.10R WCI  30
$$

COZ006>008-011-251200-
...WEST CENTRAL VALLEYS...

CITY           SKY/WX    TMP DP  RH WIND       PRES   REMARKS
GRAND JUNCTION FAIR      49  30  48 E6        29.99R
MONTROSE       FAIR      49  21  33 NW3       30.08R
EAGLE          CLOUDY    43  28  56 E9        30.07R
RIFLE          MOCLDY    47  33  58 E8        30.02R
DELTA          FAIR      56  25  30 SW3       30.03R
NUCLA          FAIR      46  23  39 E7        30.10S
$$

COZ017>023-064>068-251200-
...SOUTHWEST COLORADO...

CITY           SKY/WX    TMP DP  RH WIND       PRES   REMARKS
DURANGO        FAIR      34  22  61 NE5       30.12R WCI  30
CORTEZ         FAIR      53  21  28 S6        30.09R
PAGOSA SPRINGS FAIR      40  19  43 CALM      30.18R
TELLURIDE      FAIR      42  13  30 CALM      30.21R
WOLF CREEK PAS FAIR      28  12  50 SW18      30.32S WCI  16
$$

COZ009-010-012-014-032>034-037-058>063-251200-
...CENTRAL COLORADO...

CITY           SKY/WX    TMP DP  RH WIND       PRES   REMARKS
ASPEN          CLOUDY    42  25  50 CALM      30.08R
BUENA VISTA    FAIR      38  15  40 N5        30.12R
COPPER MTN     NOT AVBL
BERTHOUD PASS  FAIR      27  18  69 W18G30    30.22S WCI  13
COTTONWOOD PAS FAIR      45   7  21 W13G25    30.18R
GUNNISON       FAIR      41  18  38 NE9       30.13R
KREMMLING      MOCLDY    37  28  70 CALM      30.09R
LEADVILLE      FAIR      37  12  35 SE8       30.16R
MONARCH PASS   FAIR      30  12  47 W14G24    30.36S WCI  20
SALIDA         FAIR      44  14  30 CALM      30.18R
SUNLIGHT       MOCLDY    34  27  75 SW3       30.21R
WILKERSON PASS FAIR      32  10  40 SW13G21   30.21F WCI  22
$$

COZ069>075-251200-
...SAN LUIS VALLEY/SANGRE DE CRISTO MOUNTAINS...

CITY           SKY/WX    TMP DP  RH WIND       PRES   REMARKS
ALAMOSA        FAIR      38  21  50 SE10      30.09F
LA VETA PASS   FAIR      39  10  30 S15G24    30.18S
SAGUACHE       FAIR      34  18  51 NW8       30.12S WCI  27
$$

COZ035-036-038>040-251200-
...NORTHERN COLORADO FRONT RANGE...

CITY           SKY/WX    TMP DP  RH WIND       PRES   REMARKS
DENVER INTL AP FAIR      48  41  76 NW10      29.96R
DMNS CITY PARK   N/A     49  44  82 SW3       29.97S
AURORA         PTCLDY    46  44  93 SW3       29.98R
FRONT RANGE AP NOT AVBL
ERIE MUNI ARPT FAIR      43  41  91 SW3       29.94S
BOULDER MUN AP FAIR      50  32  50 S3        29.94S
CENTENNIAL     FAIR      45  40  82 W6        29.98R
BROOMFIELD     FAIR      50  37  62 CALM      29.97S
FORT COLLINS   FAIR      48  43  81 CALM      29.95R
LONGMONT       FAIR      44  40  83 CALM      29.96S
$$

COZ041-046-047-076>085-087-088-251200-
...PIKES PEAK/PALMER DIVIDE AND SOUTHERN FOOTHILLS...

CITY           SKY/WX    TMP DP  RH WIND       PRES   REMARKS
COLO. SPRINGS  FAIR      52  15  23 N10       29.97R
A. F. ACADEMY  FAIR      52  14  22 N14       29.99R
SCHRIEVER AFB  NOT AVBL
ELLICOTT       FAIR     N/A N/A N/A N7        29.95R
FALCON         FAIR      51  14  23 NW10      30.02R
FORT CARSON    FAIR      55  16  21 W9        29.93R
LIMON          MOCLDY    50  48  93 NW6       29.94R
MONUMENT HILL  FAIR      37  34  87 SE3       30.04R
TRINIDAD       FAIR      53  12  19 W14       29.97R
$$

COZ042>045-048>051-090-091-251200-
...NORTHEAST COLORADO...

CITY           SKY/WX    TMP DP  RH WIND       PRES   REMARKS
GREELEY ARPT   FAIR      46  37  71 S8        29.95R
AKRON          CLOUDY    54  51  90 E8        29.91R
BURLINGTON     CLOUDY    56  54  93 N8        29.87R
WRAY           NOT AVBL
STERLING       MOCLDY    52  52 100 N5        29.90R
HOLYOKE        CLOUDY    59  52  77 NE6       29.92R
FORT MORGAN    FAIR      47  44  88 N9        29.93R
$$

COZ086-089-092>099-251200-
...SOUTHEAST COLORADO...

CITY           SKY/WX    TMP DP  RH WIND       PRES   REMARKS
PUEBLO         FAIR      54  21  27 CALM      29.89R
LA JUNTA       FAIR      59  19  21 W14       29.87R
LAMAR          FAIR      44  33  65 SW6       29.85R
SPRINGFIELD      N/A     52  26  36 W10       29.89R
$$




USA.gov is the U.S. government's official web portal to all federal, state and local government web resources and services.